STARLINK-11156 [DTC] (61056 NORAD) Tracking and Keplerian Element Data

This shows tracking and keplerian element data for the satellite.

Feedback or suggestion? Click here.




ElementValue
Catalog61056
NameSTARLINK-11156 [DTC]
Epoch Orbit481
Epoch Day286.48708721
Epoch Year2024
RAAN321.253
Inclination53.1548
Eccentricity0.0001943
Argument of Perigee131.1993
Mean Anonmoly228.9196
Mean Motion15.76791302
Decay Rate0.00064382
L11 61056U 24164G 24286.48708721 .00064382 00000+0 39328-3 0 9994
L22 61056 53.1548 321.2530 0001943 131.1993 228.9196 15.76791302 4817



Live tracking and technical data element details for STARLINK-11156 [DTC] (NORAD 61056). STARLINK-11156 [DTC] can be tracked NOW for your location showing map with azimuth and elevation plus other details from your city location.







IsCatalogInMostPopularTable: catalog: 61056, numindb: 24
Update: records affected: 1



GetName: 61056 STARLINK-11156 [DTC]

Hit Count: updated at: Wed, 04 Dec 2024 08:14:21 GMT